Flag for Brazil Weather past 2 weeks in Feira de Santana, Bahia, Brazil

Now
77 °F

Passing clouds.


Feels Like: 78 °F
Forecast: N/A
Wind: 10 mph from East

Location: Salvador Aeroporto

Current Time: Jul 25, 2014 at 8:23:31 PM

Latest Report: Jul 25, 2014 at 8:00 PM


Visibility: N/A

Pressure: 30.04 "Hg

Humidity: 83%

Dew point: 72 °F

Location of Feira de SantanaLocation

Historic Weather in Feira de Santana — Graph

°F

Feira de Santana temperature yesterday

Maximum temperature yesterday: 81 °F (at 9:00 AM)
Minimum temperature yesterday: 73 °F (at 2:00 AM)
Average temperature yesterday: 77 °F

Past Weeks' High & Low Weather Summary

 TemperatureHumidityPressure
High84 °F (Jul 12, 4:00 PM)100% (Jul 15, 2:00 PM)30.21 "Hg (Jul 15, 2:00 PM)
Low41 °F (Jul 15, 2:00 PM)62% (Jul 11, 2:00 PM)29.98 "Hg (Jul 11, 2:00 PM)
Average77 °F79%30.10 "Hg
* Reported Jul 10 7:00 PM — Jul 25 7:00 PM, Feira de Santana, Weather by CustomWeather, © 2014

Note: Actual official high and low records may vary slightly from our data, if they occured in-between our weather recording intervals... More about our weather records

Advertising

Feira de Santana weather history for previous 24 hours

 ConditionsComfort  
Time TempWeatherWind HumidityBarometerVisibility
7:00 PM
Jul 25
77 °FPassing clouds.9 mph83%30.04 "HgN/A
6:00 PM77 °FPassing clouds.10 mph83%30.01 "HgN/A
5:00 PM79 °FScattered clouds.9 mph79%30.01 "HgN/A
4:00 PM79 °FScattered clouds.7 mph79%30.01 "HgN/A
3:00 PM79 °FScattered clouds.13 mph79%30.01 "HgN/A
2:00 PM82 °FScattered clouds.10 mph74%30.01 "HgN/A
1:00 PM81 °FPassing clouds.12 mph79%30.04 "HgN/A
12:00 PM82 °FScattered clouds.12 mph74%30.07 "HgN/A
11:00 AM82 °FScattered clouds.10 mph74%30.09 "HgN/A
10:00 AM81 °FScattered clouds.10 mph79%30.09 "HgN/A
9:00 AM77 °FBroken clouds.6 mph89%30.09 "HgN/A
8:00 AM77 °FScattered clouds.3 mph94%30.07 "HgN/A
7:00 AM73 °FBroken clouds.3 mph94%30.04 "HgN/A
6:00 AM72 °FPartly sunny.3 mph100%30.04 "HgN/A
5:00 AM72 °FPassing clouds.2 mph100%30.01 "HgN/A
4:00 AM73 °FPassing clouds.3 mph94%30.01 "HgN/A
3:00 AM73 °FPassing clouds.1 mph94%30.01 "HgN/A
2:00 AM73 °FLight rain. Passing clouds.12 mph94%N/A3 mi
1:00 AM75 °FPartly cloudy.13 mph89%30.07 "HgN/A
12:00 AM75 °FPassing clouds.12 mph89%30.07 "HgN/A
11:00 PM
Jul 24
75 °FPartly cloudy.8 mph89%30.09 "HgN/A
10:00 PM75 °FPartly cloudy.6 mph89%30.09 "HgN/A
9:00 PM77 °FPassing clouds.9 mph83%30.09 "HgN/A
8:00 PM75 °FPassing clouds.7 mph89%30.07 "HgN/A
Weather by CustomWeather, © 2014

See weather overviewHow to use our weather pages